Orbital Elements at Epoch 2456183.5 (2012-Sep-13.0) TDB
Reference: JPL K172/8 (heliocentric ecliptic J2000)
Element | Value | Uncertainty (1-sigma) | Units |
e | .5016105669476711 | 7.9921e-08 | |
a | 3.774104374713501 | 1.312e-07 | au |
q | 1.880973739593776 | 2.6142e-07 | au |
i | 8.126270446090473 | 9.5532e-06 | deg |
node | 119.7278627210677 | 6.5311e-05 | deg |
peri | 13.14619850371807 | 8.6103e-05 | deg |
M | 117.9230880643593 | 2.5161e-05 | deg |
tp | 2455306.265648905711 (2010-Apr-19.76564891) | 0.00014608 | TDB |
period | 2678.053734664635 7.33 | 0.00013964 3.823e-07 | d yr |
n | .1344259808308446 | 7.0094e-09 | deg/d |
Q | 5.667235009833226 | 1.9701e-07 | au |
|
| | Orbit Determination Parameters
Additional Information
|